Vorticity
nan nan nan nan nan nan nan nan nan nan nan nan nan nan nan nan nan nan nan nan nan nan nan nan nan nan nan nan nan nan nan nan nan nan nan nan nan nan nan nan nan nan nan nan nan nan nan nan nan
nan 3 6 7 5 5 5 8 10 8 8 6 5 5 4 7 10 9 7 9 6 6 7 7 9 8 7 7 5 6 5 5 5 5 6 6 6 5 5 7 5 6 5 6 6 5 6 6 nan
nan 5 7 8 8 6 5 7 11 12 6 4 5 7 7 8 9 6 8 9 4 6 8 8 8 8 7 5 7 8 8 5 5 6 5 6 7 6 5 6 6 6 7 7 6 5 5 5 nan
nan 6 8 8 6 4 6 10 9 6 2 8 6 4 9 9 11 11 10 5 5 6 6 8 9 8 7 5 9 6 7 7 5 6 6 6 7 8 7 5 7 7 7 5 5 5 4 4 nan
nan 6 8 6 3 4 6 9 4 5 7 7 6 5 3 7 13 10 7 5 5 6 6 8 8 6 5 6 7 6 5 6 6 6 6 7 7 7 7 7 6 7 6 4 5 5 3 3 nan
nan 7 6 7 5 7 5 0 7 14 8 7 6 7 7 9 5 6 6 6 7 6 7 8 6 4 5 6 6 6 6 6 6 6 6 7 6 6 6 7 7 6 5 6 5 3 3 3 nan
nan 8 8 7 3 5 1 5 12 13 6 7 6 6 7 6 7 8 7 7 7 7 7 7 7 7 5 4 5 5 6 6 6 6 6 5 6 6 6 5 7 6 6 5 4 4 4 4 nan
nan 8 7 9 7 3 4 4 13 6 8 9 8 7 8 9 8 6 6 6 7 7 6 6 7 7 7 7 5 6 7 7 6 6 6 6 4 3 3 5 7 7 6 6 5 4 4 4 nan
nan 8 8 8 9 5 6 6 9 8 9 3 11 15 15 12 4 5 5 3 5 7 7 6 6 6 6 7 7 7 7 6 6 4 3 4 5 5 5 6 6 6 6 5 5 5 5 6 nan
nan 9 10 7 7 10 9 3 5 12 3 2 9 15 13 7 5 6 5 4 3 3 6 7 7 6 6 6 6 5 6 5 5 6 5 5 6 6 5 5 6 4 5 5 5 6 6 6 nan
nan 8 9 11 9 7 6 6 7 9 9 12 8 6 5 3 4 5 7 9 5 3 6 8 7 6 5 6 5 6 6 6 6 6 7 6 6 7 6 6 4 4 5 6 5 7 6 5 nan
nan 9 12 11 8 7 6 6 5 8 13 20 15 6 4 5 5 5 6 7 8 7 7 7 7 6 5 6 7 7 7 7 7 6 6 5 6 6 7 7 6 7 5 6 7 6 6 6 nan
nan 10 13 11 7 7 6 4 6 14 17 13 11 7 4 3 5 6 7 7 8 7 7 8 7 7 6 6 7 7 7 6 7 7 6 5 6 7 7 7 6 6 7 7 7 7 8 8 nan
nan 11 8 7 7 7 9 1 6 18 15 9 7 4 4 5 5 3 7 7 6 7 8 7 7 7 6 7 7 6 5 7 7 8 9 7 7 8 8 8 7 7 8 8 9 8 8 8 nan
nan 5 6 8 8 7 5 6 6 12 14 6 4 5 5 5 6 7 4 7 6 6 9 8 6 8 7 7 6 7 6 7 7 8 11 11 7 7 9 9 9 8 9 10 9 8 8 9 nan
nan 5 7 8 7 7 2 8 13 10 10 8 4 5 6 7 5 7 6 8 8 7 8 8 8 7 7 8 7 7 7 7 8 8 9 10 8 8 8 9 7 7 9 10 8 8 8 9 nan
nan 8 9 10 6 7 6 7 14 9 10 8 6 7 7 7 5 8 8 8 9 7 8 7 8 8 9 7 8 8 7 7 8 8 8 9 9 7 7 8 7 8 8 8 8 9 9 8 nan
nan 8 7 11 10 8 5 7 8 11 11 9 9 6 8 8 8 8 8 8 8 8 7 8 9 8 8 6 7 8 8 8 8 8 9 8 8 7 6 7 7 7 8 7 9 9 9 9 nan
nan 7 6 13 11 8 7 7 8 8 10 11 11 8 7 8 9 11 10 7 6 9 8 8 7 6 4 7 7 8 9 8 9 11 9 8 8 8 6 7 7 7 7 7 9 7 7 9 nan
nan 7 9 12 11 6 13 7 10 9 9 12 9 9 5 6 12 10 9 8 7 6 6 7 7 7 4 5 8 9 10 8 10 11 10 8 9 7 8 8 7 8 6 7 9 9 8 6 nan
nan 8 8 11 7 6 8 13 11 5 10 12 9 11 13 9 5 7 9 7 7 7 7 7 8 7 7 6 5 7 7 9 9 9 10 10 9 7 7 7 8 7 7 8 8 9 9 7 nan
nan 13 12 8 6 11 7 9 8 12 11 7 9 11 11 8 6 9 9 8 8 8 6 7 9 8 9 7 6 7 7 7 8 8 9 10 9 7 8 8 8 7 7 8 8 8 8 9 nan
nan 10 13 8 8 9 6 12 6 9 10 9 11 10 10 11 10 7 7 9 7 10 8 6 8 8 10 8 6 6 7 7 9 11 10 8 9 10 8 8 8 8 7 7 8 8 8 8 nan
nan 6 7 10 8 7 11 8 6 9 7 8 11 10 8 11 9 7 9 10 10 9 10 9 6 7 9 8 8 8 7 6 6 8 8 9 8 10 9 9 8 7 8 8 7 8 8 8 nan
nan 6 7 6 12 8 8 9 10 8 9 6 6 15 14 9 9 9 8 7 9 9 7 8 9 6 8 8 8 8 8 9 7 6 7 8 8 9 11 9 8 7 9 9 9 8 8 8 nan
nan 9 9 11 6 9 9 6 10 10 7 8 9 18 21 12 10 10 9 7 8 9 7 6 8 9 8 8 7 7 8 7 9 8 8 8 9 8 10 9 8 8 8 8 8 8 9 9 nan
nan 8 8 6 9 13 7 7 11 9 5 8 9 12 15 11 12 13 12 11 7 8 10 8 6 8 8 7 7 7 8 8 8 9 7 8 8 9 9 9 8 9 9 8 8 8 8 8 nan
nan 8 7 10 14 7 9 10 13 9 7 6 8 8 8 13 11 10 15 10 8 9 10 10 10 10 7 8 7 8 8 8 8 10 9 8 9 10 10 9 9 9 9 9 8 8 9 8 nan
nan 7 11 14 9 12 9 9 14 12 9 6 4 8 10 10 8 10 13 14 14 12 11 9 9 10 8 9 9 8 8 8 8 9 9 8 9 10 9 9 9 9 9 9 8 8 9 8 nan
nan nan nan nan nan nan nan nan nan nan nan nan nan nan nan nan nan nan nan nan nan nan nan nan nan nan nan nan nan nan nan nan nan nan nan nan nan nan nan nan nan nan nan nan nan nan nan nan nan
CAPE
229 254 187 0 0 1 33 51 59 10 51 0 23 88 138 231 63 0 0 16 156 233 468 762 972 682 332 696 1388 1021 1357 1745 1877 2022 1923 1852 1752 1308 1624 1558 1690 1533 1421 1180 1293 1269 1266 1290 1605
0 0 36 0 0 3 67 51 33 9 2 10 102 237 314 280 212 56 37 100 347 597 552 631 1216 892 173 328 640 1435 1705 1854 1983 2057 1899 1782 1737 1687 1724 1861 1650 1733 1747 1741 1467 1597 1712 1803 1656
11 0 2 0 2 16 79 44 53 1 6 53 174 299 377 248 130 76 93 264 636 697 796 851 1270 1447 1193 864 1015 1088 1500 1748 1971 1911 1818 1945 1890 1808 1723 1870 1946 1997 1809 1732 1758 1829 1775 1721 1754
129 89 9 65 80 97 109 72 15 33 26 77 117 192 345 261 312 252 361 587 742 805 843 1357 1601 1451 1467 1682 1628 1658 1808 1756 1907 2190 1922 1694 1827 2028 1991 1956 2032 1936 2015 2050 1863 1918 1884 1755 1653
130 21 33 45 57 98 162 223 28 47 67 83 67 283 384 370 276 348 407 574 808 839 988 1290 1641 1646 1081 1878 2086 1727 1983 2084 2137 2164 1956 2000 2096 1964 2094 2087 1841 1955 2028 2069 2022 1715 1579 1790 1716
20 42 31 33 59 38 171 312 382 94 150 125 157 318 221 318 372 383 541 718 928 1120 1166 1326 1778 1833 2022 2078 2137 2131 1993 2092 2061 2063 1881 2119 2353 2327 2143 2178 2150 2118 1935 1958 1866 1449 1814 1449 1353
2 31 41 40 44 41 71 105 136 199 92 141 191 152 142 315 437 650 772 1009 1342 1277 986 1106 1574 1614 1913 1918 2052 1922 1885 1909 2094 2143 2020 2097 2157 2291 2230 2195 2016 1789 1659 1744 1652 1579 1306 1241 1202
0 76 36 23 36 29 27 4 109 124 208 184 153 88 141 55 701 906 1156 1296 1272 974 879 856 1228 1315 1189 1352 1857 1760 1841 1822 1715 1854 1991 2106 2211 2037 1644 1914 1600 1574 1375 1268 1306 1221 1119 895 960
53 2 9 17 10 3 5 60 352 319 175 122 208 133 48 204 787 782 918 1064 1049 937 912 950 963 839 1001 1194 1501 1680 1775 1646 1765 1695 2421 1526 1061 1394 1668 1888 1711 1330 966 856 861 735 730 859 1164
2 0 5 6 1 1 25 62 165 187 63 177 143 9 105 465 626 588 449 471 772 900 851 837 864 966 1122 1567 1053 1065 1194 874 854 849 825 637 590 1098 1480 1873 1945 1893 1909 1901 1911 1849 1612 861 213
88 1 0 0 6 25 41 91 52 176 40 144 146 17 147 408 447 441 449 420 481 713 849 700 756 853 946 999 822 749 748 776 689 735 787 568 440 576 630 708 985 891 1545 881 833 902 1045 1166 1063
101 278 114 11 80 1 17 81 35 135 36 176 113 7 164 295 312 381 359 354 320 616 827 723 702 772 613 731 791 735 721 513 473 571 648 507 364 503 389 329 496 385 313 293 564 544 682 756 833
0 241 158 128 34 17 24 68 37 83 123 193 56 32 94 174 225 239 197 99 183 497 676 590 482 495 388 637 647 661 601 563 427 359 384 421 361 378 143 129 111 207 373 395 438 520 598 607 645
0 360 128 83 45 76 7 49 162 124 156 154 7 7 85 137 198 199 171 112 165 353 393 489 407 252 249 495 523 486 455 430 212 165 309 447 314 268 134 231 168 278 397 334 384 554 600 518 91
364 304 352 290 49 54 74 58 169 129 167 214 102 96 157 128 165 147 185 108 148 259 164 285 286 283 240 370 369 335 459 421 222 139 334 461 258 323 354 319 159 390 690 714 426 295 416 512 80
312 185 73 442 410 216 120 24 41 50 139 155 131 128 117 70 125 145 142 134 146 170 68 142 536 388 274 255 194 230 276 151 92 121 471 331 200 753 432 469 995 644 463 551 661 608 545 58 5
227 155 27 283 310 168 129 47 9 61 83 123 86 58 60 74 121 95 200 119 113 94 45 95 195 265 258 72 14 80 156 151 31 250 526 340 682 707 271 432 668 200 89 263 383 603 593 295 48
38 103 51 60 291 287 134 144 0 16 102 44 30 6 24 18 57 91 114 105 39 29 2 32 12 132 6 0 0 1 37 105 304 326 358 106 750 498 32 82 381 0 114 334 594 931 314 203 125
27 60 57 27 237 36 295 95 152 0 23 34 6 12 6 0 35 47 135 28 58 10 0 9 3 34 0 0 0 6 65 82 245 255 437 916 726 479 5 0 0 0 246 258 475 1134 869 730 146
0 0 2 142 123 68 143 197 167 6 9 11 5 15 19 15 26 97 128 71 86 23 0 0 1 3 9 0 17 44 0 158 222 179 568 636 590 249 321 0 0 0 208 213 534 469 660 154 333
0 0 15 44 303 305 226 116 261 129 0 39 32 22 13 14 49 93 198 226 132 55 14 2 18 0 0 2 44 82 295 592 377 272 187 157 424 257 673 4 0 0 108 238 436 12 203 697 497
0 0 0 195 61 11 106 12 1 90 13 8 19 29 7 11 51 54 149 199 140 98 41 40 0 13 2 0 150 198 323 554 419 269 212 9 4 537 994 242 5 0 3 59 455 0 0 564 1139
0 33 93 50 14 0 23 37 0 79 91 17 3 19 35 0 44 64 100 124 140 128 93 85 5 0 96 24 196 138 90 379 261 251 222 84 8 523 1186 626 190 9 0 0 372 503 359 357 772
8 0 0 0 0 46 2 16 0 110 27 11 23 20 20 29 17 49 107 131 78 126 110 217 39 2 34 130 104 161 66 221 265 293 352 235 175 368 759 750 264 55 0 0 0 27 700 31 0
0 31 8 28 38 29 0 0 0 4 21 48 23 31 14 32 39 66 77 58 51 113 144 228 150 35 0 76 143 83 139 144 177 265 372 491 283 355 479 747 382 257 108 0 0 83 831 863 744
0 6 0 3 0 1 0 1 6 1 22 73 25 24 25 20 82 85 50 113 113 116 132 200 67 130 0 36 109 130 60 123 157 166 184 498 386 344 389 578 675 372 326 356 567 864 969 938 1033
0 0 0 0 0 0 0 0 20 0 0 2 3 60 15 5 16 117 61 123 97 74 101 154 127 65 47 90 102 99 185 152 164 197 183 191 218 407 439 329 745 693 441 670 708 662 892 796 909
0 0 0 0 0 0 0 0 17 16 0 1 0 0 0 8 55 16 91 82 120 88 97 165 169 104 46 90 155 182 209 214 152 200 290 384 304 356 418 384 452 763 636 840 857 614 430 507 525
0 0 0 0 0 0 0 0 0 2 0 0 0 0 0 0 0 1 4 17 49 201 189 265 236 94 118 79 124 212 258 313 223 96 185 392 464 376 432 468 548 614 657 566 790 919 814 687 806
0 0 0 0 0 0 0 0 0 0 0 0 0 0 2 0 2 22 160 6 0 137 387 408 374 304 170 58 104 151 172 383 372 287 82 81 468 506 651 727 666 721 646 719 685 865 1270 900 821